| time (UTC) | temp F | wind direction | speed MPH | gust MPH | rain 1hr in | rain 24hr in | rain mn in | humidity % | barometer mb |
| 20260904094508 | 69 | 167 | 0.0 | 0.0 | 0.00 | 0.01 | 0.00 | 67 | 1017.6 |
| 20260904093005 | 69 | 167 | 0.0 | 0.0 | 0.00 | 0.01 | 0.00 | 68 | 1017.5 |
| 20260904091506 | 69 | 167 | 0.0 | 0.0 | 0.00 | 0.01 | 0.00 | 68 | 1017.5 |
| 20260904090013 | 69 | 167 | 0.0 | 0.0 | 0.00 | 0.01 | 0.00 | 68 | 1017.3 |
| 20260904084505 | 69 | 167 | 0.0 | 0.0 | 0.00 | 0.01 | 0.00 | 68 | 1017.5 |
| 20260904083004 | 69 | 167 | 0.0 | 0.0 | 0.00 | 0.01 | 0.00 | 69 | 1017.3 |
| 20260904081505 | 70 | 167 | 0.0 | 0.0 | 0.00 | 0.01 | 0.00 | 69 | 1017.2 |
| 20260904080003 | 70 | 167 | 0.0 | 0.0 | 0.00 | 0.01 | 0.00 | 69 | 1017.2 |
| 20260904074609 | 70 | 167 | 0.0 | 0.0 | 0.00 | 0.01 | 0.00 | 68 | 1017.2 |
| 20260904073059 | 70 | 167 | 0.0 | 0.0 | 0.00 | 0.01 | 0.00 | 68 | 1017.1 |
| 20260904071559 | 70 | 167 | 0.0 | 0.0 | 0.00 | 0.01 | 0.00 | 68 | 1017.2 |
| 20260904070056 | 70 | 167 | 0.0 | 0.0 | 0.00 | 0.01 | 0.00 | 67 | 1017.4 |
| 20260904064603 | 70 | 167 | 0.0 | 0.0 | 0.00 | 0.01 | 0.00 | 67 | 1017.6 |
| 20260904063052 | 70 | 167 | 0.0 | 1.0 | 0.00 | 0.01 | 0.00 | 67 | 1017.6 |
| 20260904061550 | 70 | 167 | 0.0 | 0.0 | 0.00 | 0.01 | 0.00 | 67 | 1018.0 |
| 20260904060112 | 71 | 167 | 0.0 | 0.0 | 0.00 | 0.01 | 0.00 | 66 | 1018.2 |
| 20260904054546 | 71 | 167 | 0.0 | 0.0 | 0.00 | 0.01 | 0.00 | 66 | 1018.4 |
| 20260904053134 | 71 | 167 | 0.0 | 0.0 | 0.00 | 0.01 | 0.00 | 66 | 1018.6 |
| 20260904051603 | 71 | 167 | 0.0 | 0.0 | 0.00 | 0.01 | 0.00 | 66 | 1018.8 |
| 20260904050040 | 72 | 167 | 0.0 | 0.0 | 0.00 | 0.01 | 0.00 | 64 | 1018.9 |
| 20260904044556 | 72 | 167 | 0.0 | 0.0 | 0.00 | 0.01 | 0.00 | 64 | 1018.9 |
| 20260904043039 | 72 | 167 | 0.0 | 0.0 | 0.00 | 0.01 | 0.00 | 64 | 1019.0 |
| 20260904041539 | 72 | 167 | 0.0 | 0.0 | 0.00 | 0.01 | 0.00 | 64 | 1019.1 |
| 20260904040046 | 72 | 167 | 0.0 | 0.0 | 0.00 | 0.01 | 0.00 | 65 | 1019.1 |
| 20260904034536 | 72 | 167 | 0.0 | 0.0 | 0.00 | 0.01 | 0.01 | 65 | 1019.0 |
| 20260904033042 | 72 | 167 | 0.0 | 1.0 | 0.00 | 0.01 | 0.01 | 64 | 1019.1 |
| 20260904031535 | 72 | 167 | 0.0 | 3.0 | 0.00 | 0.01 | 0.01 | 64 | 1019.2 |
| 20260904030034 | 72 | 167 | 0.0 | 1.0 | 0.00 | 0.01 | 0.01 | 64 | 1019.4 |
| 20260904024535 | 72 | 167 | 0.0 | 0.0 | 0.00 | 0.01 | 0.01 | 62 | 1019.3 |
| 20260904023133 | 73 | 167 | 0.0 | 0.0 | 0.00 | 0.01 | 0.01 | 62 | 1019.4 |
| 20260904021534 | 73 | 167 | 0.0 | 0.0 | 0.00 | 0.01 | 0.01 | 61 | 1019.5 |
| 20260904020037 | 73 | 167 | 0.0 | 0.0 | 0.00 | 0.01 | 0.01 | 63 | 1019.3 |
| 20260904014532 | 73 | 167 | 0.0 | 1.0 | 0.00 | 0.01 | 0.01 | 63 | 1019.1 |
| 20260904013034 | 73 | 167 | 0.0 | 2.0 | 0.00 | 0.01 | 0.01 | 63 | 1018.9 |
| 20260904011534 | 73 | 167 | 0.0 | 2.0 | 0.00 | 0.01 | 0.01 | 63 | 1018.7 |
| 20260904010030 | 73 | 167 | 0.0 | 1.0 | 0.00 | 0.01 | 0.01 | 63 | 1018.4 |
| 20260904004530 | 74 | 167 | 0.0 | 1.0 | 0.00 | 0.01 | 0.01 | 62 | 1018.3 |
| 20260904003029 | 74 | 167 | 0.0 | 0.0 | 0.00 | 0.01 | 0.01 | 62 | 1018.1 |
| 20260904001531 | 74 | 167 | 0.0 | 0.0 | 0.00 | 0.01 | 0.01 | 61 | 1017.8 |
| 20260904000028 | 74 | 167 | 0.0 | 2.0 | 0.00 | 0.01 | 0.01 | 61 | 1017.6 |
| 20260903234529 | 75 | 167 | 0.0 | 1.0 | 0.00 | 0.01 | 0.01 | 60 | 1017.3 |
| 20260903233027 | 76 | 167 | 0.0 | 0.0 | 0.00 | 0.01 | 0.01 | 59 | 1017.4 |
| 20260903231532 | 76 | 167 | 0.0 | 0.0 | 0.00 | 0.01 | 0.01 | 58 | 1017.2 |
| 20260903230026 | 76 | 167 | 0.0 | 0.0 | 0.00 | 0.01 | 0.01 | 58 | 1017.4 |
| 20260903224537 | 77 | 167 | 0.0 | 0.0 | 0.00 | 0.01 | 0.01 | 57 | 1017.2 |
| 20260903223030 | 77 | 167 | 0.0 | 0.0 | 0.00 | 0.01 | 0.01 | 56 | 1017.4 |
| 20260903221521 | 77 | 167 | 0.0 | 0.0 | 0.00 | 0.01 | 0.01 | 56 | 1017.6 |
| 20260903220021 | 78 | 167 | 1.0 | 3.0 | 0.00 | 0.01 | 0.01 | 53 | 1017.6 |
| 20260903214520 | 78 | 167 | 0.0 | 2.0 | 0.00 | 0.01 | 0.01 | 50 | 1017.7 |
| 20260903213037 | 79 | 167 | 1.0 | 2.0 | 0.00 | 0.01 | 0.01 | 51 | 1017.7 |
| 20260903211518 | 79 | 167 | 1.0 | 3.0 | 0.00 | 0.01 | 0.01 | 50 | 1017.6 |
| 20260903210017 | 79 | 167 | 0.0 | 1.0 | 0.00 | 0.01 | 0.01 | 52 | 1017.7 |
| 20260903204516 | 79 | 167 | 0.0 | 2.0 | 0.00 | 0.01 | 0.01 | 50 | 1017.7 |
| 20260903203025 | 79 | 167 | 0.0 | 2.0 | 0.00 | 0.01 | 0.01 | 49 | 1017.8 |
| 20260903201514 | 79 | 167 | 0.0 | 1.0 | 0.00 | 0.01 | 0.01 | 50 | 1018.1 |
| 20260903200014 | 79 | 167 | 0.0 | 2.0 | 0.00 | 0.01 | 0.01 | 52 | 1018.2 |